Location: Belfast
(54.5830°N, 5.9330°W)
Time: 12:07:26
(UTC+01:00)

Coronas F rocket - Visible Passes

Search period start: 30 July 2014 00:00
Search period end: 09 August 2014 00:00
Orbit: 399 x 417 km, 82.5° (Epoch: 29 July)

Date Brightness Start Highest point End Pass type
(mag) Time Alt. Az. Time Alt. Az. Time Alt. Az.
30 Jul 2.4 01:02:36 37° SE 01:03:16 42° E 01:06:24 10° NNE visible
30 Jul 4.0 02:35:23 13° W 02:37:00 17° WNW 02:39:16 10° NNW visible
31 Jul 3.8 00:14:23 15° E 00:14:59 16° E 00:17:05 10° NE visible
31 Jul 2.6 01:47:11 32° WSW 01:48:10 43° WNW 01:51:20 10° N visible
01 Aug 1.9 00:58:56 48° SSE 00:59:34 61° E 01:02:49 10° NNE visible
01 Aug 4.4 02:31:46 10° W 02:33:27 13° WNW 02:35:10 10° NNW visible
02 Aug 3.4 00:10:41 21° ESE 00:11:11 21° E 00:13:45 10° NE visible
02 Aug 3.1 01:43:28 25° WSW 01:44:32 31° WNW 01:47:31 10° N visible
03 Aug 1.6 00:55:11 55° S 00:55:50 87° E 00:59:07 10° NNE visible
03 Aug 4.6 02:29:19 10° WNW 02:29:53 10° WNW 02:30:27 10° NW visible
04 Aug 2.9 00:06:52 27° ESE 00:07:21 28° E 00:10:13 10° NNE visible
04 Aug 3.6 01:39:39 19° W 01:40:51 24° WNW 01:43:35 10° NNW visible
04 Aug 4.1 23:18:32 11° E 23:19:04 11° E 23:20:08 10° ENE visible
05 Aug 1.9 00:51:19 47° SW 00:52:03 66° WNW 00:55:19 10° N visible
06 Aug 2.4 00:02:58 36° ESE 00:03:28 39° E 00:06:33 10° NNE visible
06 Aug 4.0 01:35:44 15° W 01:37:08 18° WNW 01:39:31 10° NNW visible
06 Aug 3.8 23:14:35 15° E 23:15:06 15° E 23:17:02 10° NE visible
07 Aug 2.5 00:47:21 36° WSW 00:48:14 47° WNW 00:51:25 10° N visible
07 Aug 1.9 23:58:56 45° SE 23:59:33 55° E 00:02:46 10° NNE visible
08 Aug 4.4 01:31:43 11° W 01:33:23 14° WNW 01:35:15 10° NNW visible
08 Aug 3.4 23:10:30 19° ESE 23:11:05 20° E 23:13:31 10° NE visible
